HUN28M EHAM-LGIR

Flight info

Callsign HUN28M
Flight time N/A
Altitude 35000
Route EDUPO Z739 MISGO DCT DOJOH DCT DODEN DCT NEGIX DCT DINKU M867 XERUM DCT BAVAX DCT RADIZ DCT NIPEL DCT ABISO DCT NEMEK DCT VRANA/N0454F370 DCT PETAK DCT PINDO UL607 GIVIS T514 XAVIS
Aircraft A21N/M-SDE2E3FGHIJ1RWXY/LB1

Departure

Time 2026-04-30 12:23
Airport Amsterdam Airport Schiphol (EHAM)

Arrival

Time N/A
Airport Heraklion International Nikos Kazantzakis Airport (LGIR)
Time Latitude Longitude Altitude Speed Heading
2026-04-30 11:40 52.30579 4.76701 4 ft 0 kts 213°
2026-04-30 12:10 52.30589 4.76711 4 ft 4 kts 215°
2026-04-30 12:10 52.30608 4.76733 4 ft 1 kts 215°
2026-04-30 12:10 52.30627 4.76756 4 ft 4 kts 224°
2026-04-30 12:10 52.30635 4.76770 4 ft 3 kts 304°
2026-04-30 12:11 52.30622 4.76802 4 ft 2 kts 304°
2026-04-30 12:11 52.30621 4.76804 4 ft 0 kts 304°
2026-04-30 12:13 52.30623 4.76800 4 ft 1 kts 304°
2026-04-30 12:13 52.30632 4.76779 4 ft 3 kts 311°
2026-04-30 12:14 52.30657 4.76749 4 ft 6 kts 327°
2026-04-30 12:14 52.30700 4.76742 4 ft 8 kts 36°
2026-04-30 12:14 52.30696 4.76830 4 ft 10 kts 135°
2026-04-30 12:14 52.30626 4.76867 4 ft 12 kts 172°
2026-04-30 12:15 52.30550 4.76926 4 ft 13 kts 147°
2026-04-30 12:15 52.30472 4.77007 4 ft 14 kts 148°
2026-04-30 12:15 52.30428 4.77109 4 ft 12 kts 77°
2026-04-30 12:15 52.30470 4.77235 4 ft 13 kts 58°
2026-04-30 12:16 52.30521 4.77368 4 ft 14 kts 58°
2026-04-30 12:16 52.30577 4.77511 4 ft 15 kts 51°
2026-04-30 12:16 52.30672 4.77589 4 ft 16 kts
2026-04-30 12:16 52.30788 4.77599 4 ft 17 kts
2026-04-30 12:17 52.31037 4.77623 4 ft 19 kts
2026-04-30 12:17 52.31168 4.77635 4 ft 19 kts
2026-04-30 12:17 52.31306 4.77647 4 ft 20 kts
2026-04-30 12:18 52.31448 4.77644 4 ft 21 kts 329°
2026-04-30 12:18 52.31555 4.77480 4 ft 22 kts 302°
2026-04-30 12:18 52.31572 4.77239 4 ft 22 kts 267°
2026-04-30 12:18 52.31565 4.76984 4 ft 23 kts 267°
2026-04-30 12:19 52.31555 4.76720 4 ft 24 kts 266°
2026-04-30 12:19 52.31545 4.76447 5 ft 24 kts 266°
2026-04-30 12:19 52.31535 4.76166 4 ft 25 kts 266°
2026-04-30 12:19 52.31525 4.75878 4 ft 26 kts 266°
2026-04-30 12:20 52.31515 4.75578 4 ft 27 kts 266°
2026-04-30 12:20 52.31505 4.75269 4 ft 28 kts 267°
2026-04-30 12:20 52.31495 4.74971 4 ft 15 kts 267°
2026-04-30 12:20 52.31490 4.74831 4 ft 13 kts 266°
2026-04-30 12:21 52.31506 4.74687 4 ft 14 kts 321°
2026-04-30 12:21 52.31578 4.74661 5 ft 6 kts 360°
2026-04-30 12:21 52.31625 4.74671 5 ft 7 kts 19°
2026-04-30 12:21 52.31665 4.74728 5 ft 9 kts 80°
2026-04-30 12:22 52.31666 4.74743 5 ft 0 kts 84°
2026-04-30 12:22 52.31667 4.74743 5 ft 0 kts 84°
2026-04-30 12:23 52.31678 4.74999 2 ft 58 kts 87°
2026-04-30 12:23 52.31711 4.76037 4 ft 122 kts 86°
2026-04-30 12:23 52.31767 4.77700 25 ft 169 kts 87°
2026-04-30 12:23 52.31845 4.79619 641 ft 166 kts 87°
2026-04-30 12:24 52.31887 4.81520 1293 ft 173 kts 88°
2026-04-30 12:24 52.31951 4.83609 1734 ft 194 kts 88°
2026-04-30 12:24 52.31995 4.85937 2136 ft 220 kts 93°
2026-04-30 12:24 52.31641 4.88432 2674 ft 236 kts 111°
2026-04-30 12:25 52.30978 4.90926 3533 ft 240 kts 114°
2026-04-30 12:25 52.30301 4.93415 4442 ft 241 kts 114°
2026-04-30 12:25 52.29634 4.95945 5347 ft 244 kts 111°
2026-04-30 12:25 52.29112 4.98585 6204 ft 244 kts 107°
2026-04-30 12:26 52.28639 5.01280 6987 ft 249 kts 107°
2026-04-30 12:26 52.28161 5.04033 7781 ft 253 kts 107°
2026-04-30 12:26 52.27678 5.06823 8577 ft 257 kts 106°
2026-04-30 12:26 52.27192 5.09622 9379 ft 261 kts 106°
2026-04-30 12:27 52.26685 5.12530 10172 ft 265 kts 106°
2026-04-30 12:27 52.26178 5.15432 10758 ft 278 kts 106°
2026-04-30 12:27 52.25628 5.18588 11072 ft 299 kts 105°
2026-04-30 12:27 52.25035 5.21983 11334 ft 321 kts 105°
2026-04-30 12:28 52.24300 5.25538 11698 ft 338 kts 114°
2026-04-30 12:28 52.23072 5.28851 12355 ft 345 kts 123°
2026-04-30 12:28 52.21668 5.32060 13052 ft 349 kts 124°
2026-04-30 12:28 52.20243 5.35291 13734 ft 353 kts 123°
2026-04-30 12:29 52.18825 5.38523 14406 ft 356 kts 123°
2026-04-30 12:29 52.17379 5.41826 15066 ft 359 kts 123°
2026-04-30 12:29 52.15919 5.45162 15682 ft 363 kts 123°
2026-04-30 12:29 52.14441 5.48533 16269 ft 367 kts 123°
2026-04-30 12:30 52.12946 5.51941 16860 ft 370 kts 123°
2026-04-30 12:30 52.11447 5.55366 17430 ft 374 kts 123°
2026-04-30 12:30 52.09933 5.58835 17978 ft 376 kts 123°
2026-04-30 12:30 52.08429 5.62273 18498 ft 379 kts 123°
2026-04-30 12:31 52.06889 5.65780 19021 ft 383 kts 123°
2026-04-30 12:31 52.05234 5.69210 19525 ft 388 kts 127°
2026-04-30 12:31 52.03457 5.72540 20009 ft 392 kts 128°
2026-04-30 12:31 52.01647 5.75885 20497 ft 395 kts 128°
2026-04-30 12:32 51.99830 5.79250 20981 ft 398 kts 128°
2026-04-30 12:32 51.98000 5.82641 21425 ft 401 kts 128°
2026-04-30 12:32 51.96161 5.86061 21887 ft 404 kts 128°
2026-04-30 12:32 51.94334 5.89478 22345 ft 407 kts 128°
2026-04-30 12:33 51.92471 5.92962 22792 ft 410 kts 128°
2026-04-30 12:33 51.90593 5.96466 23242 ft 413 kts 128°
2026-04-30 12:33 51.88702 5.99988 23665 ft 416 kts 128°
2026-04-30 12:33 51.86792 6.03534 24084 ft 419 kts 128°
2026-04-30 12:34 51.84864 6.07103 24507 ft 422 kts 128°
2026-04-30 12:34 51.82919 6.10680 24907 ft 425 kts 128°
2026-04-30 12:34 51.80963 6.14274 25297 ft 428 kts 128°
2026-04-30 12:34 51.78985 6.17897 25692 ft 430 kts 128°
2026-04-30 12:35 51.77022 6.21488 26078 ft 433 kts 128°
2026-04-30 12:35 51.75018 6.25144 26431 ft 436 kts 129°
2026-04-30 12:35 51.73003 6.28813 26793 ft 438 kts 129°
2026-04-30 12:35 51.70970 6.32518 27147 ft 441 kts 128°
2026-04-30 12:36 51.68921 6.36255 27491 ft 443 kts 128°
2026-04-30 12:36 51.66875 6.39977 27813 ft 446 kts 128°
2026-04-30 12:36 51.64836 6.43683 28121 ft 448 kts 128°
2026-04-30 12:36 51.62763 6.47440 28437 ft 450 kts 128°
2026-04-30 12:37 51.60673 6.51225 28753 ft 451 kts 128°
2026-04-30 12:37 51.58585 6.54991 29151 ft 450 kts 128°
2026-04-30 12:37 51.56501 6.58749 29555 ft 449 kts 128°
2026-04-30 12:37 51.54423 6.62498 29929 ft 448 kts 128°
2026-04-30 12:38 51.52368 6.66201 30284 ft 448 kts 128°
2026-04-30 12:38 51.50293 6.69927 30654 ft 447 kts 128°
2026-04-30 12:38 51.48212 6.73654 31018 ft 446 kts 128°
2026-04-30 12:38 51.46140 6.77361 31376 ft 444 kts 128°
2026-04-30 12:39 51.44078 6.81054 31699 ft 444 kts 128°
2026-04-30 12:39 51.42043 6.84697 32016 ft 444 kts 128°
2026-04-30 12:39 51.39943 6.88331 32339 ft 444 kts 131°
2026-04-30 12:39 51.37736 6.91803 32648 ft 444 kts 132°
2026-04-30 12:40 51.35515 6.95248 32922 ft 443 kts 132°
2026-04-30 12:40 51.33302 6.98674 33210 ft 443 kts 132°
2026-04-30 12:40 51.31114 7.02064 33503 ft 442 kts 132°
2026-04-30 12:40 51.28906 7.05484 33750 ft 442 kts 132°
2026-04-30 12:41 51.26702 7.08907 33994 ft 441 kts 132°
2026-04-30 12:41 51.24500 7.12323 34239 ft 441 kts 132°
2026-04-30 12:41 51.22293 7.15723 34451 ft 441 kts 132°
2026-04-30 12:41 51.20071 7.19112 34652 ft 441 kts 132°
2026-04-30 12:42 51.17897 7.22551 34844 ft 440 kts 130°
2026-04-30 12:42 51.15741 7.26029 35041 ft 440 kts 130°
2026-04-30 12:42 51.13590 7.29497 35247 ft 440 kts 130°
2026-04-30 12:42 51.11461 7.32918 35414 ft 440 kts 130°
2026-04-30 12:43 51.07137 7.39846 35436 ft 440 kts 130°
2026-04-30 12:43 51.02805 7.46755 35416 ft 440 kts 131°
2026-04-30 12:44 50.98495 7.53597 35412 ft 440 kts 131°
2026-04-30 12:44 50.94163 7.60480 35412 ft 441 kts 131°
2026-04-30 12:45 50.89817 7.67348 35414 ft 441 kts 131°
2026-04-30 12:45 50.85470 7.74231 35412 ft 441 kts 130°
2026-04-30 12:46 50.81126 7.81103 35411 ft 442 kts 131°
2026-04-30 12:46 50.76782 7.87900 35410 ft 442 kts 131°
2026-04-30 12:47 50.72427 7.94725 35405 ft 441 kts 131°
2026-04-30 12:47 50.68053 8.01550 35411 ft 441 kts 131°
2026-04-30 12:48 50.63666 8.08381 35411 ft 444 kts 131°
2026-04-30 12:48 50.59261 8.15208 35409 ft 443 kts 131°
2026-04-30 12:49 50.54882 8.21963 35410 ft 443 kts 131°
2026-04-30 12:49 50.50481 8.28766 35412 ft 443 kts 130°
2026-04-30 12:50 50.46817 8.34414 35418 ft 443 kts 131°
2026-04-30 12:50 50.41685 8.42283 35422 ft 443 kts 131°
2026-04-30 12:51 50.37979 8.47953 35430 ft 443 kts 131°
2026-04-30 12:51 50.33579 8.54676 35430 ft 443 kts 131°
2026-04-30 12:52 50.29144 8.61422 35428 ft 443 kts 131°
2026-04-30 12:52 50.24708 8.68143 35415 ft 445 kts 131°
2026-04-30 12:53 50.20263 8.74868 35414 ft 445 kts 131°
2026-04-30 12:53 50.15851 8.81548 35412 ft 444 kts 131°
2026-04-30 12:54 50.11390 8.88270 35412 ft 445 kts 131°
2026-04-30 12:54 50.06956 8.94934 35410 ft 445 kts 131°
2026-04-30 12:55 50.02484 9.01618 35412 ft 446 kts 131°
2026-04-30 12:55 49.97999 9.08283 35414 ft 447 kts 131°
2026-04-30 12:56 49.93495 9.14947 35409 ft 446 kts 130°
2026-04-30 12:56 49.89031 9.21578 35413 ft 447 kts 130°
2026-04-30 12:57 49.84535 9.28242 35414 ft 447 kts 130°
2026-04-30 12:57 49.80029 9.34905 35412 ft 447 kts 130°
2026-04-30 12:58 49.75516 9.41560 35411 ft 448 kts 130°
2026-04-30 12:58 49.70999 9.48193 35414 ft 448 kts 130°
2026-04-30 12:59 49.66478 9.54822 35411 ft 448 kts 130°
2026-04-30 12:59 49.61968 9.61414 35403 ft 449 kts 130°
2026-04-30 13:00 49.57429 9.68029 35402 ft 449 kts 130°
2026-04-30 13:00 49.52909 9.74591 35400 ft 449 kts 130°
2026-04-30 13:01 49.48369 9.81201 35404 ft 450 kts 130°
2026-04-30 13:01 49.43822 9.87804 35411 ft 449 kts 130°
2026-04-30 13:02 49.39247 9.94363 35412 ft 449 kts 130°
2026-04-30 13:02 49.34716 10.00880 35411 ft 449 kts 130°
2026-04-30 13:03 49.30141 10.07447 35412 ft 450 kts 130°
2026-04-30 13:03 49.25564 10.14000 35413 ft 450 kts 130°
2026-04-30 13:04 49.20995 10.20543 35407 ft 449 kts 130°
2026-04-30 13:04 49.16453 10.27027 35410 ft 449 kts 130°
2026-04-30 13:05 49.11865 10.33534 35408 ft 450 kts 130°
2026-04-30 13:06 49.04986 10.43270 35411 ft 450 kts 130°
2026-04-30 13:06 49.00380 10.49751 35411 ft 450 kts 130°
2026-04-30 13:07 48.95821 10.56170 35404 ft 450 kts 130°
2026-04-30 13:07 48.91212 10.62625 35401 ft 450 kts 130°
2026-04-30 13:08 48.86591 10.69070 35401 ft 450 kts 131°
2026-04-30 13:08 48.81979 10.75506 35400 ft 449 kts 130°
2026-04-30 13:09 48.77758 10.82325 35392 ft 444 kts 125°
2026-04-30 13:09 48.73618 10.89312 35390 ft 445 kts 125°
2026-04-30 13:10 48.69458 10.96301 35392 ft 446 kts 125°
2026-04-30 13:10 48.65282 11.03272 35401 ft 446 kts 125°
2026-04-30 13:11 48.61116 11.10217 35401 ft 445 kts 125°
2026-04-30 13:11 48.56953 11.17098 35400 ft 446 kts 125°
2026-04-30 13:12 48.52767 11.24026 35395 ft 445 kts 125°
2026-04-30 13:12 48.48599 11.30951 35395 ft 445 kts 125°
2026-04-30 13:13 48.42343 11.41262 35400 ft 446 kts 125°
2026-04-30 13:14 48.36049 11.51588 35400 ft 446 kts 125°
2026-04-30 13:14 48.29722 11.61901 35402 ft 446 kts 125°
2026-04-30 13:15 48.23137 11.71889 35398 ft 451 kts 130°
2026-04-30 13:16 48.18532 11.78196 35399 ft 451 kts 130°
2026-04-30 13:16 48.13885 11.84546 35395 ft 451 kts 130°
2026-04-30 13:17 48.06927 11.94062 35390 ft 451 kts 130°
2026-04-30 13:18 47.99993 12.03523 35396 ft 452 kts 130°
2026-04-30 13:18 47.93014 12.13012 35381 ft 452 kts 130°
2026-04-30 13:19 47.88358 12.19314 35377 ft 452 kts 130°
2026-04-30 13:19 47.83714 12.25587 35375 ft 453 kts 131°
2026-04-30 13:20 47.79027 12.31886 35374 ft 454 kts 131°
2026-04-30 13:20 47.74334 12.38189 35367 ft 454 kts 131°
2026-04-30 13:21 47.69632 12.44479 35376 ft 455 kts 131°
2026-04-30 13:22 47.62574 12.53890 35371 ft 457 kts 132°
2026-04-30 13:22 47.55515 12.63447 35378 ft 458 kts 131°
2026-04-30 13:23 47.48418 12.73000 35371 ft 461 kts 132°
2026-04-30 13:24 47.38920 12.85719 35364 ft 462 kts 133°
2026-04-30 13:25 47.29369 12.98466 35345 ft 463 kts 133°
2026-04-30 13:26 47.17386 13.14350 35352 ft 466 kts 134°
2026-04-30 13:28 47.05320 13.30267 35348 ft 467 kts 134°
2026-04-30 13:28 46.98055 13.39796 35338 ft 468 kts 134°
2026-04-30 13:29 46.88301 13.52465 35340 ft 470 kts 135°
2026-04-30 13:31 46.76050 13.68343 35352 ft 471 kts 135°
2026-04-30 13:32 46.63813 13.84173 35338 ft 472 kts 136°
2026-04-30 13:33 46.53980 13.96814 35343 ft 473 kts 136°
2026-04-30 13:34 46.46654 14.06467 35341 ft 475 kts 134°
2026-04-30 13:35 46.37215 14.19807 35351 ft 473 kts 134°
2026-04-30 13:36 46.27783 14.33048 35349 ft 473 kts 134°
2026-04-30 13:36 46.21475 14.41875 35346 ft 473 kts 134°
2026-04-30 13:37 46.14359 14.51781 35350 ft 473 kts 135°
2026-04-30 13:38 46.07268 14.61629 35353 ft 473 kts 135°
2026-04-30 13:39 45.97745 14.74798 35361 ft 476 kts 135°
2026-04-30 13:40 45.90574 14.84685 35362 ft 479 kts 136°
2026-04-30 13:40 45.85753 14.91305 35366 ft 479 kts 136°
2026-04-30 13:41 45.80929 14.97906 35364 ft 479 kts 136°
2026-04-30 13:41 45.76103 15.04497 35364 ft 479 kts 136°
2026-04-30 13:42 45.71306 15.11029 35359 ft 479 kts 136°
2026-04-30 13:42 45.64051 15.20881 35361 ft 479 kts 136°
2026-04-30 13:43 45.59208 15.27434 35359 ft 479 kts 136°
2026-04-30 13:43 45.54295 15.33864 35369 ft 480 kts 138°
2026-04-30 13:44 45.49358 15.40188 35360 ft 480 kts 138°
2026-04-30 13:44 45.44386 15.46541 35360 ft 480 kts 138°
2026-04-30 13:45 45.36917 15.56062 35366 ft 480 kts 138°
2026-04-30 13:46 45.31939 15.62401 35366 ft 480 kts 138°
2026-04-30 13:46 45.26975 15.68689 35368 ft 481 kts 138°
2026-04-30 13:47 45.21975 15.75013 35371 ft 481 kts 139°
2026-04-30 13:47 45.16965 15.81321 35361 ft 482 kts 139°
2026-04-30 13:48 45.11949 15.87624 35362 ft 482 kts 139°
2026-04-30 13:48 45.06918 15.93944 35359 ft 483 kts 139°
2026-04-30 13:49 45.01876 16.00252 35363 ft 484 kts 139°
2026-04-30 13:49 44.96827 16.06572 35360 ft 485 kts 139°
2026-04-30 13:50 44.91788 16.12849 35349 ft 485 kts 139°
2026-04-30 13:50 44.84171 16.22292 35330 ft 486 kts 140°
2026-04-30 13:51 44.79110 16.28568 35331 ft 487 kts 140°
2026-04-30 13:51 44.73994 16.34863 35325 ft 488 kts 140°
2026-04-30 13:52 44.68890 16.41157 35323 ft 488 kts 140°
2026-04-30 13:52 44.63782 16.47453 35324 ft 488 kts 140°
2026-04-30 13:53 44.58661 16.53739 35312 ft 489 kts 140°
2026-04-30 13:53 44.53551 16.59979 35309 ft 489 kts 140°
2026-04-30 13:54 44.48418 16.66240 35306 ft 489 kts 140°
2026-04-30 13:54 44.43313 16.72464 35305 ft 488 kts 140°
2026-04-30 13:55 44.38174 16.78706 35310 ft 488 kts 141°
2026-04-30 13:55 44.33041 16.84926 35304 ft 488 kts 141°
2026-04-30 13:56 44.27898 16.91140 35300 ft 488 kts 141°
2026-04-30 13:56 44.22759 16.97333 35292 ft 488 kts 141°
2026-04-30 13:57 44.17651 17.03474 35277 ft 488 kts 141°
2026-04-30 13:57 44.12505 17.09639 35253 ft 487 kts 141°
2026-04-30 13:58 44.04785 17.18875 35234 ft 487 kts 141°
2026-04-30 13:59 43.99672 17.24978 35224 ft 487 kts 141°
2026-04-30 13:59 43.94506 17.31113 35212 ft 489 kts 142°
2026-04-30 14:00 43.89327 17.37269 35219 ft 489 kts 142°
2026-04-30 14:00 43.81604 17.46408 35206 ft 488 kts 142°
2026-04-30 14:01 43.76416 17.52523 35225 ft 488 kts 143°
2026-04-30 14:01 43.70904 17.57969 35256 ft 486 kts 149°
2026-04-30 14:02 43.68098 17.60570 35449 ft 485 kts 149°
2026-04-30 14:02 43.65330 17.63132 35661 ft 484 kts 149°
2026-04-30 14:02 43.62531 17.65728 35841 ft 485 kts 149°
2026-04-30 14:02 43.59724 17.68331 36002 ft 484 kts 149°
2026-04-30 14:03 43.56926 17.70927 36154 ft 483 kts 149°
2026-04-30 14:03 43.54134 17.73513 36335 ft 482 kts 149°
2026-04-30 14:03 43.51372 17.76067 36463 ft 484 kts 149°
2026-04-30 14:03 43.48571 17.78654 36597 ft 484 kts 149°
2026-04-30 14:04 43.45774 17.81238 36785 ft 483 kts 149°
2026-04-30 14:04 43.43001 17.83797 37044 ft 479 kts 149°
2026-04-30 14:04 43.40236 17.86336 37198 ft 477 kts 149°
2026-04-30 14:04 43.37479 17.88868 37219 ft 476 kts 149°
2026-04-30 14:05 43.31968 17.93927 37183 ft 476 kts 149°
2026-04-30 14:05 43.26452 17.98986 37174 ft 477 kts 150°
2026-04-30 14:06 43.18217 18.06514 37167 ft 476 kts 150°
2026-04-30 14:07 43.09928 18.14060 37157 ft 477 kts 150°
2026-04-30 14:08 43.01631 18.21603 37153 ft 478 kts 150°
2026-04-30 14:08 42.93354 18.29110 37144 ft 477 kts 151°
2026-04-30 14:09 42.87808 18.34114 37129 ft 478 kts 151°
2026-04-30 14:10 42.79477 18.41608 37117 ft 477 kts 151°
2026-04-30 14:10 42.73914 18.46594 37121 ft 477 kts 152°
2026-04-30 14:11 42.68393 18.51542 37121 ft 477 kts 151°
2026-04-30 14:11 42.62823 18.56523 37119 ft 479 kts 152°
2026-04-30 14:12 42.57252 18.61487 37113 ft 478 kts 152°
2026-04-30 14:12 42.51709 18.66421 37116 ft 479 kts 152°
2026-04-30 14:13 42.46131 18.71367 37113 ft 479 kts 152°
2026-04-30 14:13 42.40557 18.76310 37102 ft 478 kts 152°
2026-04-30 14:14 42.35018 18.81209 37109 ft 478 kts 152°
2026-04-30 14:14 42.29428 18.86135 37122 ft 480 kts 152°
2026-04-30 14:15 42.23829 18.91061 37127 ft 480 kts 152°
2026-04-30 14:15 42.18268 18.95946 37130 ft 479 kts 152°
2026-04-30 14:16 42.12676 19.00839 37139 ft 478 kts 152°
2026-04-30 14:16 42.07090 19.05720 37140 ft 477 kts 152°
2026-04-30 14:17 42.01499 19.10600 37141 ft 478 kts 153°
2026-04-30 14:17 41.95945 19.15438 37143 ft 477 kts 153°
2026-04-30 14:18 41.90373 19.20282 37136 ft 477 kts 153°
2026-04-30 14:18 41.81998 19.27536 37132 ft 477 kts 153°
2026-04-30 14:19 41.74129 19.35724 37133 ft 486 kts 140°
2026-04-30 14:20 41.69320 19.42071 37122 ft 485 kts 140°
2026-04-30 14:20 41.62055 19.51535 37112 ft 485 kts 141°
2026-04-30 14:21 41.57203 19.57815 37102 ft 485 kts 141°
2026-04-30 14:22 41.49941 19.67195 37086 ft 485 kts 141°
2026-04-30 14:22 41.42647 19.76581 37092 ft 485 kts 141°
2026-04-30 14:23 41.32968 19.88992 37081 ft 484 kts 141°
2026-04-30 14:24 41.26494 19.97269 37084 ft 484 kts 141°
2026-04-30 14:25 41.16748 20.09672 37091 ft 483 kts 141°
2026-04-30 14:26 41.09493 20.18875 37096 ft 481 kts 141°
2026-04-30 14:27 41.02227 20.28062 37103 ft 481 kts 141°
2026-04-30 14:27 40.97377 20.34174 37114 ft 481 kts 141°
2026-04-30 14:28 40.90111 20.43316 37120 ft 480 kts 141°
2026-04-30 14:28 40.85259 20.49401 37119 ft 479 kts 141°
2026-04-30 14:29 40.75600 20.61467 37128 ft 478 kts 141°
2026-04-30 14:31 40.63522 20.76492 37122 ft 477 kts 141°
2026-04-30 14:31 40.56028 20.85073 37121 ft 473 kts 146°
2026-04-30 14:32 40.48304 20.93166 37122 ft 474 kts 146°
2026-04-30 14:33 40.43161 20.98608 37110 ft 474 kts 146°
2026-04-30 14:33 40.35476 21.06709 37109 ft 474 kts 146°
2026-04-30 14:34 40.30341 21.12104 37109 ft 472 kts 146°
2026-04-30 14:34 40.25209 21.17484 37099 ft 472 kts 146°
2026-04-30 14:35 40.17533 21.25524 37082 ft 472 kts 146°
2026-04-30 14:36 40.12409 21.30876 37076 ft 471 kts 146°
2026-04-30 14:36 40.07282 21.36239 37075 ft 470 kts 146°
2026-04-30 14:37 40.02155 21.41567 37073 ft 470 kts 146°
2026-04-30 14:37 39.97068 21.46844 37072 ft 469 kts 146°
2026-04-30 14:38 39.91954 21.52144 37071 ft 469 kts 146°
2026-04-30 14:38 39.86840 21.57431 37069 ft 468 kts 146°
2026-04-30 14:39 39.81731 21.62701 37070 ft 468 kts 146°
2026-04-30 14:39 39.76632 21.67952 37069 ft 468 kts 146°
2026-04-30 14:40 39.68976 21.75819 37062 ft 468 kts 146°
2026-04-30 14:40 39.63887 21.81033 37051 ft 468 kts 146°
2026-04-30 14:41 39.58763 21.86270 37049 ft 468 kts 146°
2026-04-30 14:41 39.53641 21.91502 37023 ft 469 kts 146°
2026-04-30 14:42 39.48545 21.96697 37015 ft 468 kts 146°
2026-04-30 14:42 39.43427 22.01901 37012 ft 468 kts 146°
2026-04-30 14:43 39.38302 22.07099 37005 ft 468 kts 146°
2026-04-30 14:43 39.33173 22.12293 37001 ft 467 kts 146°
2026-04-30 14:44 39.28034 22.17486 36994 ft 467 kts 146°
2026-04-30 14:44 39.22931 22.22630 36991 ft 468 kts 146°
2026-04-30 14:45 39.17791 22.27811 36984 ft 468 kts 146°
2026-04-30 14:45 39.12648 22.32979 36981 ft 468 kts 146°
2026-04-30 14:46 39.07498 22.38149 36976 ft 469 kts 146°
2026-04-30 14:46 39.02381 22.43275 36970 ft 469 kts 146°
2026-04-30 14:47 38.97227 22.48431 36970 ft 470 kts 146°
2026-04-30 14:47 38.92077 22.53575 36969 ft 468 kts 146°
2026-04-30 14:48 38.86926 22.58697 36970 ft 468 kts 147°
2026-04-30 14:48 38.81761 22.63827 36970 ft 468 kts 147°
2026-04-30 14:49 38.76639 22.68912 36974 ft 468 kts 147°
2026-04-30 14:49 38.71485 22.74017 36981 ft 469 kts 147°
2026-04-30 14:50 38.63717 22.81686 36978 ft 469 kts 147°
2026-04-30 14:51 38.55975 22.89317 36977 ft 468 kts 147°
2026-04-30 14:52 38.48211 22.96943 36980 ft 469 kts 147°
2026-04-30 14:52 38.40485 23.04512 36980 ft 468 kts 147°
2026-04-30 14:53 38.32724 23.12094 36970 ft 470 kts 147°
2026-04-30 14:54 38.22343 23.22224 36970 ft 469 kts 147°
2026-04-30 14:55 38.14591 23.29754 36971 ft 469 kts 147°
2026-04-30 14:56 38.04175 23.39814 36971 ft 471 kts 147°
2026-04-30 14:57 37.96363 23.47342 36969 ft 470 kts 147°
2026-04-30 14:58 37.85968 23.57349 36968 ft 470 kts 147°
2026-04-30 14:58 37.78135 23.64846 36978 ft 469 kts 147°
2026-04-30 15:00 37.64405 23.75680 36981 ft 466 kts 153°
2026-04-30 15:01 37.53333 23.84195 36991 ft 466 kts 153°
2026-04-30 15:01 37.45008 23.90574 36991 ft 467 kts 153°
2026-04-30 15:02 37.39450 23.94828 36989 ft 467 kts 153°
2026-04-30 15:03 37.25564 24.05418 36990 ft 468 kts 153°
2026-04-30 15:04 37.11641 24.16004 36987 ft 467 kts 154°
2026-04-30 15:05 37.03318 24.22291 36098 ft 467 kts 154°
2026-04-30 15:06 36.97703 24.26525 35594 ft 473 kts 153°
2026-04-30 15:06 36.92067 24.30781 34770 ft 471 kts 153°
2026-04-30 15:07 36.86432 24.35008 33397 ft 473 kts 153°
2026-04-30 15:07 36.80775 24.39254 31934 ft 476 kts 153°
2026-04-30 15:08 36.75099 24.43505 30460 ft 478 kts 153°
2026-04-30 15:08 36.66585 24.49873 28535 ft 472 kts 152°
2026-04-30 15:09 36.61011 24.54023 27310 ft 467 kts 152°
2026-04-30 15:09 36.55460 24.58161 26033 ft 462 kts 152°
2026-04-30 15:10 36.50901 24.61558 25006 ft 454 kts 152°
2026-04-30 15:11 36.40283 24.69441 22540 ft 434 kts 151°
2026-04-30 15:11 36.35175 24.73221 21328 ft 425 kts 151°
2026-04-30 15:12 36.27676 24.78767 19633 ft 410 kts 151°
2026-04-30 15:13 36.22823 24.82344 18601 ft 399 kts 151°
2026-04-30 15:14 36.13471 24.89227 16690 ft 389 kts 151°
2026-04-30 15:14 36.06490 24.94353 15266 ft 389 kts 151°
2026-04-30 15:16 35.95061 25.02717 12966 ft 369 kts 151°
2026-04-30 15:17 35.86428 25.09018 11223 ft 359 kts 150°
2026-04-30 15:18 35.76423 25.16308 10198 ft 306 kts 151°
2026-04-30 15:19 35.71044 25.20211 9171 ft 296 kts 151°